Weather History for KHRI - March, 2014

Change the Weather History Date:

Monday, March 17, 2014

  Actual Average Record
Temperature  
Mean Temperature 46 °F -  
Max Temperature 55 °F 57 °F 76 °F (1947)
Min Temperature 36 °F 34 °F 19 °F (1930)
Degree Days  
Heating Degree Days 19    
Moisture  
Dew Point 30 °F    
Average Humidity 57    
Maximum Humidity 82    
Minimum Humidity 31    
Precipitation  
Precipitation 0.02 in - - ()
Sea Level Pressure  
Sea Level Pressure 30.08 in    
Wind  
Wind Speed 21 mph (WSW)    
Max Wind Speed 31 mph    
Max Gust Speed 38 mph    
Visibility 10 miles    
Events Rain    
Averages and records for this station are not official NWS values.
T = Trace of Precipitation, MM = Missing Value Source: NWS Daily Summary

Daily Weather History Graph

Daily Weather History Graph

Search for Another Location

Airport or City:

Trip Planner

Search our weather history database for the weather conditions in past years. The results will help you decide how hot, cold, wet, or windy it might be!

Date:

Astronomy

Mar. 17, 2014 Rise Set
Actual Time 7:05 AM PDT 7:05 PM PDT
Civil Twilight 6:36 AM PDT 7:35 PM PDT
Nautical Twilight 6:01 AM PDT 8:10 PM PDT
Astronomical Twilight 5:25 AM PDT 8:45 PM PDT
Moon 8:33 PM PDT (3/17) 7:19 AM PDT (3/17)
Length of Visible Light 12h 59m
Length of Day
12h 00m
Full, 99% of the Moon is Illuminated
Mar 17
Full
Mar 23
Last Quarter
Mar 30
New
Apr 7
First Quarter
Apr 15
Full

Hourly Weather History & Observations

Time (PDT) Temp. Windchill Dew Point Humidity Pressure Visibility Wind Dir Wind Speed Gust Speed Precip Events Conditions
12:53 AM 46.9 °F - 39.0 °F 74% 29.79 in 10.0 mi WSW 18.4 mph 28.8 mph 0.00 in   Overcast
1:53 AM 44.1 °F 35.4 °F 37.9 °F 79% 29.83 in 10.0 mi West 21.9 mph 33.4 mph 0.01 in Rain Light Rain
2:53 AM 42.1 °F 32.8 °F 37.0 °F 82% 29.86 in 10.0 mi WSW 21.9 mph 31.1 mph 0.01 in Rain Light Rain
3:53 AM 42.1 °F 32.6 °F 35.1 °F 76% 29.88 in 10.0 mi WSW 23.0 mph 31.1 mph 0.00 in   Overcast
4:53 AM 43.0 °F 33.1 °F 33.1 °F 68% 29.91 in 10.0 mi West 26.5 mph 38.0 mph N/A   Mostly Cloudy
5:53 AM 42.1 °F 32.3 °F 32.0 °F 67% 29.97 in 10.0 mi WSW 24.2 mph 31.1 mph N/A   Scattered Clouds
6:53 AM 41.0 °F 31.9 °F 30.9 °F 67% 30.01 in 10.0 mi WSW 19.6 mph 28.8 mph N/A   Mostly Cloudy
7:53 AM 41.0 °F 31.9 °F 30.9 °F 67% 30.04 in 10.0 mi WSW 19.6 mph 29.9 mph N/A   Partly Cloudy
8:53 AM 44.1 °F 34.8 °F 30.9 °F 60% 30.07 in 10.0 mi WSW 25.3 mph 33.4 mph N/A   Clear
9:53 AM 46.9 °F - 28.9 °F 50% 30.10 in 10.0 mi WSW 21.9 mph 29.9 mph N/A   Clear
10:53 AM 50.0 °F - 28.0 °F 43% 30.12 in 10.0 mi WSW 24.2 mph 33.4 mph N/A   Clear
11:53 AM 53.1 °F - 27.0 °F 37% 30.13 in 10.0 mi WSW 24.2 mph 32.2 mph N/A   Clear
12:53 PM 55.0 °F - 26.1 °F 33% 30.13 in 10.0 mi WSW 20.7 mph 33.4 mph N/A   Clear
1:53 PM 54.0 °F - 25.0 °F 33% 30.13 in 10.0 mi WSW 26.5 mph 35.7 mph N/A   Clear
2:53 PM 55.0 °F - 25.0 °F 31% 30.13 in 10.0 mi West 31.1 mph 38.0 mph N/A   Scattered Clouds
3:53 PM 54.0 °F - 26.1 °F 34% 30.14 in 10.0 mi West 25.3 mph 38.0 mph N/A   Clear
4:53 PM 53.1 °F - 26.1 °F 35% 30.15 in 10.0 mi West 27.6 mph 33.4 mph N/A   Clear
5:53 PM 51.1 °F - 27.0 °F 39% 30.16 in 10.0 mi West 21.9 mph 34.5 mph N/A   Clear
6:53 PM 46.9 °F - 28.9 °F 50% 30.18 in 10.0 mi WSW 15.0 mph - N/A   Clear
7:53 PM 44.1 °F 37.1 °F 30.0 °F 58% 30.19 in 10.0 mi WSW 15.0 mph - N/A   Clear
8:53 PM 42.1 °F 34.5 °F 30.0 °F 62% 30.21 in 10.0 mi WSW 15.0 mph - N/A   Clear
9:53 PM 39.9 °F 33.4 °F 30.0 °F 68% 30.23 in 10.0 mi WSW 10.4 mph - N/A   Clear
10:53 PM 37.9 °F 30.5 °F 30.0 °F 73% 30.25 in 10.0 mi WSW 11.5 mph - N/A   Clear
11:53 PM 36.0 °F 27.5 °F 30.0 °F 79% 30.27 in 10.0 mi SSW 12.7 mph - N/A   Clear